| time (UTC) | temp F | wind direction | speed MPH | gust MPH | rain 1hr in | rain 24hr in | rain mn in | humidity % | barometer mb |
| 20260509143310 | 65 | 168 | 1.0 | 1.0 | 0.00 | 0.04 | 0.01 | 67 | 1009.2 |
| 20260509142809 | 65 | 264 | 0.0 | 2.0 | 0.00 | 0.04 | 0.01 | 66 | 1009.3 |
| 20260509142309 | 64 | 248 | 0.0 | 5.0 | 0.00 | 0.04 | 0.01 | 66 | 1009.3 |
| 20260509141807 | 64 | 264 | 4.0 | 7.0 | 0.00 | 0.04 | 0.01 | 64 | 1009.3 |
| 20260509141307 | 64 | 286 | 1.0 | 6.0 | 0.00 | 0.04 | 0.01 | 64 | 1009.2 |
| 20260509140806 | 64 | 167 | 0.0 | 5.0 | 0.00 | 0.04 | 0.01 | 67 | 1009.3 |
| 20260509140305 | 63 | 254 | 0.0 | 5.0 | 0.00 | 0.04 | 0.01 | 68 | 1009.1 |
| 20260509135803 | 63 | 285 | 2.0 | 9.0 | 0.00 | 0.04 | 0.01 | 68 | 1009.1 |
| 20260509135305 | 63 | 295 | 0.0 | 5.0 | 0.00 | 0.04 | 0.01 | 70 | 1009.2 |
| 20260509134801 | 62 | 288 | 0.0 | 7.0 | 0.00 | 0.04 | 0.01 | 70 | 1009.2 |
| 20260509134300 | 62 | 191 | 1.0 | 13.0 | 0.00 | 0.04 | 0.01 | 69 | 1009.2 |
| 20260509133759 | 62 | 278 | 0.0 | 5.0 | 0.00 | 0.04 | 0.01 | 71 | 1009.3 |
| 20260509133258 | 62 | 260 | 0.0 | 4.0 | 0.00 | 0.04 | 0.01 | 71 | 1009.2 |
| 20260509132758 | 61 | 260 | 3.0 | 6.0 | 0.00 | 0.04 | 0.01 | 71 | 1009.2 |
| 20260509132256 | 61 | 244 | 0.0 | 3.0 | 0.00 | 0.04 | 0.01 | 74 | 1009.2 |
| 20260509131755 | 60 | 222 | 0.0 | 5.0 | 0.00 | 0.04 | 0.01 | 75 | 1009.2 |
| 20260509131254 | 60 | 281 | 0.0 | 3.0 | 0.00 | 0.04 | 0.01 | 75 | 1009.2 |
| 20260509130753 | 60 | 272 | 0.0 | 6.0 | 0.00 | 0.04 | 0.01 | 79 | 1009.1 |
| 20260509130252 | 59 | 253 | 0.0 | 0.0 | 0.00 | 0.04 | 0.01 | 79 | 1009.1 |
| 20260509125751 | 59 | 253 | 0.0 | 0.0 | 0.00 | 0.04 | 0.01 | 82 | 1009.1 |
| 20260509125250 | 58 | 253 | 0.0 | 6.0 | 0.00 | 0.04 | 0.01 | 82 | 1009.0 |
| 20260509124749 | 58 | 215 | 0.0 | 0.0 | 0.00 | 0.04 | 0.01 | 82 | 1008.8 |
| 20260509124248 | 58 | 215 | 0.0 | 0.0 | 0.00 | 0.04 | 0.01 | 85 | 1008.7 |
| 20260509123747 | 57 | 215 | 0.0 | 0.0 | 0.00 | 0.04 | 0.01 | 87 | 1008.6 |
| 20260509123246 | 57 | 215 | 0.0 | 1.0 | 0.00 | 0.04 | 0.01 | 88 | 1008.7 |
| 20260509122745 | 57 | 215 | 0.0 | 0.0 | 0.00 | 0.04 | 0.01 | 89 | 1008.6 |
| 20260509122244 | 56 | 215 | 0.0 | 0.0 | 0.00 | 0.04 | 0.01 | 90 | 1008.6 |
| 20260509121852 | 56 | 215 | 0.0 | 0.0 | 0.00 | 0.04 | 0.01 | 90 | 1008.6 |
| 20260509121743 | 56 | 215 | 0.0 | 0.0 | 0.00 | 0.04 | 0.01 | 90 | 1008.6 |
| 20260509121242 | 56 | 215 | 0.0 | 0.0 | 0.00 | 0.04 | 0.01 | 91 | 1008.6 |
| 20260509120741 | 56 | 215 | 0.0 | 0.0 | 0.00 | 0.04 | 0.01 | 91 | 1008.6 |
| 20260509120240 | 55 | 215 | 0.0 | 0.0 | 0.00 | 0.04 | 0.01 | 92 | 1008.6 |
| 20260509115739 | 55 | 215 | 0.0 | 0.0 | 0.00 | 0.04 | 0.01 | 92 | 1008.5 |
| 20260509115238 | 55 | 215 | 0.0 | 0.0 | 0.00 | 0.04 | 0.01 | 92 | 1008.4 |
| 20260509114737 | 55 | 215 | 0.0 | 0.0 | 0.00 | 0.04 | 0.01 | 92 | 1008.4 |
| 20260509114236 | 55 | 215 | 0.0 | 0.0 | 0.00 | 0.04 | 0.01 | 92 | 1008.3 |
| 20260509113735 | 55 | 215 | 0.0 | 0.0 | 0.00 | 0.04 | 0.01 | 92 | 1008.2 |
| 20260509113234 | 55 | 215 | 0.0 | 5.0 | 0.00 | 0.04 | 0.01 | 92 | 1008.2 |
| 20260509112733 | 55 | 244 | 0.0 | 1.0 | 0.00 | 0.04 | 0.01 | 92 | 1008.1 |
| 20260509112232 | 55 | 234 | 0.0 | 3.0 | 0.00 | 0.04 | 0.01 | 92 | 1008.0 |
| 20260509111731 | 55 | 212 | 0.0 | 0.0 | 0.00 | 0.04 | 0.01 | 93 | 1008.1 |
| 20260509111230 | 55 | 212 | 0.0 | 0.0 | 0.00 | 0.04 | 0.01 | 92 | 1007.9 |
| 20260509110729 | 55 | 212 | 0.0 | 1.0 | 0.00 | 0.04 | 0.01 | 93 | 1007.9 |
| 20260509110228 | 55 | 234 | 2.0 | 3.0 | 0.00 | 0.04 | 0.01 | 93 | 1007.9 |
| 20260509105727 | 55 | 241 | 2.0 | 4.0 | 0.00 | 0.04 | 0.01 | 93 | 1007.8 |
| 20260509105226 | 55 | 208 | 3.0 | 4.0 | 0.00 | 0.04 | 0.01 | 95 | 1007.8 |
| 20260509104725 | 55 | 261 | 2.0 | 5.0 | 0.00 | 0.04 | 0.01 | 95 | 1007.8 |
| 20260509104224 | 55 | 260 | 2.0 | 5.0 | 0.00 | 0.04 | 0.01 | 95 | 1007.8 |
| 20260509103809 | 55 | 226 | 0.0 | 3.0 | 0.00 | 0.04 | 0.01 | 95 | 1007.8 |
| 20260509103723 | 55 | 226 | 0.0 | 3.0 | 0.00 | 0.04 | 0.01 | 95 | 1007.8 |
| 20260509103222 | 55 | 220 | 1.0 | 4.0 | 0.00 | 0.04 | 0.01 | 95 | 1007.8 |
| 20260509102755 | 55 | 244 | 1.0 | 4.0 | 0.00 | 0.04 | 0.01 | 95 | 1007.8 |
| 20260509102721 | 55 | 244 | 1.0 | 4.0 | 0.00 | 0.04 | 0.01 | 95 | 1007.8 |
| 20260509102220 | 55 | 185 | 1.0 | 4.0 | 0.00 | 0.04 | 0.01 | 96 | 1007.7 |
| 20260509101753 | 55 | 247 | 2.0 | 4.0 | 0.00 | 0.04 | 0.01 | 96 | 1007.8 |
| 20260509101719 | 55 | 247 | 2.0 | 4.0 | 0.00 | 0.04 | 0.01 | 96 | 1007.8 |
| 20260509101218 | 56 | 201 | 0.0 | 4.0 | 0.00 | 0.04 | 0.01 | 96 | 1007.8 |
| 20260509101040 | 56 | 251 | 1.0 | 4.0 | 0.00 | 0.04 | 0.01 | 96 | 1007.8 |
| 20260509100717 | 56 | 251 | 1.0 | 4.0 | 0.00 | 0.04 | 0.01 | 96 | 1007.8 |
| 20260509100216 | 56 | 227 | 0.0 | 5.0 | 0.00 | 0.04 | 0.01 | 96 | 1007.9 |
| 20260509095715 | 56 | 225 | 1.0 | 3.0 | 0.01 | 0.04 | 0.01 | 96 | 1008.0 |
| 20260509095214 | 56 | 227 | 1.0 | 3.0 | 0.01 | 0.04 | 0.01 | 96 | 1008.0 |
| 20260509094813 | 56 | 261 | 3.0 | 4.0 | 0.01 | 0.04 | 0.01 | 97 | 1007.9 |
| 20260509094713 | 56 | 261 | 3.0 | 4.0 | 0.01 | 0.04 | 0.01 | 97 | 1007.9 |
| 20260509094212 | 56 | 250 | 0.0 | 3.0 | 0.01 | 0.04 | 0.01 | 97 | 1008.1 |
| 20260509093711 | 56 | 232 | 3.0 | 4.0 | 0.01 | 0.04 | 0.01 | 97 | 1008.0 |
| 20260509093210 | 56 | 251 | 0.0 | 4.0 | 0.01 | 0.04 | 0.01 | 97 | 1007.9 |
| 20260509092709 | 56 | 220 | 1.0 | 3.0 | 0.01 | 0.04 | 0.01 | 97 | 1008.0 |
| 20260509092242 | 56 | 220 | 3.0 | 5.0 | 0.01 | 0.04 | 0.01 | 97 | 1008.0 |
| 20260509092208 | 56 | 220 | 3.0 | 5.0 | 0.01 | 0.04 | 0.01 | 97 | 1008.0 |
| 20260509091707 | 56 | 247 | 3.0 | 4.0 | 0.01 | 0.04 | 0.01 | 98 | 1007.9 |
| 20260509091206 | 56 | 241 | 1.0 | 4.0 | 0.01 | 0.04 | 0.01 | 98 | 1007.8 |
| 20260509090705 | 56 | 246 | 2.0 | 4.0 | 0.01 | 0.04 | 0.01 | 98 | 1007.9 |
| 20260509090238 | 56 | 248 | 1.0 | 3.0 | 0.00 | 0.03 | 0.00 | 98 | 1007.9 |
| 20260509090204 | 56 | 248 | 1.0 | 3.0 | 0.00 | 0.03 | 0.00 | 98 | 1007.9 |
| 20260509085738 | 56 | 213 | 0.0 | 8.0 | 0.00 | 0.03 | 0.00 | 98 | 1007.8 |
| 20260509085703 | 56 | 213 | 0.0 | 8.0 | 0.00 | 0.03 | 0.00 | 98 | 1007.8 |
| 20260509085246 | 56 | 220 | 1.0 | 5.0 | 0.00 | 0.03 | 0.00 | 98 | 1007.8 |
| 20260509085202 | 56 | 220 | 1.0 | 5.0 | 0.00 | 0.03 | 0.00 | 98 | 1007.8 |
| 20260509084701 | 56 | 267 | 2.0 | 5.0 | 0.00 | 0.03 | 0.00 | 98 | 1007.8 |
| 20260509084331 | 56 | 250 | 2.0 | 6.0 | 0.00 | 0.03 | 0.00 | 99 | 1007.7 |
| 20260509084244 | 56 | 250 | 2.0 | 6.0 | 0.00 | 0.03 | 0.00 | 99 | 1007.7 |
| 20260509084200 | 56 | 250 | 2.0 | 6.0 | 0.00 | 0.03 | 0.00 | 99 | 1007.7 |
| 20260509083659 | 56 | 213 | 2.0 | 7.0 | 0.00 | 0.03 | 0.00 | 99 | 1007.7 |
| 20260509083158 | 56 | 277 | 3.0 | 4.0 | 0.00 | 0.03 | 0.00 | 99 | 1007.7 |
| 20260509082806 | 56 | 203 | 2.0 | 7.0 | 0.00 | 0.03 | 0.00 | 99 | 1007.8 |
| 20260509082727 | 56 | 203 | 2.0 | 7.0 | 0.00 | 0.03 | 0.00 | 99 | 1007.8 |
| 20260509082657 | 56 | 203 | 2.0 | 7.0 | 0.00 | 0.03 | 0.00 | 99 | 1007.8 |
| 20260509082227 | 56 | 230 | 5.0 | 6.0 | 0.00 | 0.03 | 0.00 | 99 | 1007.8 |
| 20260509082156 | 56 | 230 | 5.0 | 6.0 | 0.00 | 0.03 | 0.00 | 99 | 1007.8 |
| 20260509081830 | 56 | 202 | 2.0 | 6.0 | 0.00 | 0.03 | 0.00 | 99 | 1007.8 |
| 20260509081756 | 56 | 202 | 2.0 | 6.0 | 0.00 | 0.03 | 0.00 | 99 | 1007.8 |
| 20260509081655 | 56 | 202 | 2.0 | 6.0 | 0.00 | 0.03 | 0.00 | 99 | 1007.8 |
| 20260509081154 | 56 | 246 | 3.0 | 6.0 | 0.00 | 0.03 | 0.00 | 99 | 1007.8 |
| 20260509080653 | 56 | 261 | 1.0 | 5.0 | 0.00 | 0.03 | 0.00 | 100 | 1007.8 |
| 20260509080152 | 56 | 239 | 4.0 | 4.0 | 0.00 | 0.03 | 0.00 | 100 | 1007.8 |
| 20260509075651 | 56 | 194 | 1.0 | 7.0 | 0.00 | 0.03 | 0.00 | 100 | 1007.8 |
| 20260509075150 | 56 | 254 | 2.0 | 4.0 | 0.00 | 0.03 | 0.00 | 100 | 1007.8 |
| 20260509074728 | 56 | 262 | 3.0 | 6.0 | 0.00 | 0.03 | 0.00 | 100 | 1007.8 |
| 20260509074649 | 56 | 262 | 3.0 | 6.0 | 0.00 | 0.03 | 0.00 | 100 | 1007.8 |
| 20260509074148 | 55 | 227 | 2.0 | 6.0 | 0.00 | 0.03 | 0.00 | 99 | 1007.8 |
| 20260509073722 | 56 | 210 | 2.0 | 5.0 | 0.00 | 0.03 | 0.00 | 100 | 1007.9 |
| 20260509073647 | 56 | 210 | 2.0 | 5.0 | 0.00 | 0.03 | 0.00 | 100 | 1007.9 |
| 20260509073146 | 56 | 171 | 2.0 | 4.0 | 0.00 | 0.03 | 0.00 | 99 | 1007.8 |
| 20260509072645 | 56 | 187 | 1.0 | 5.0 | 0.00 | 0.03 | 0.00 | 99 | 1007.9 |
| 20260509072144 | 56 | 213 | 2.0 | 5.0 | 0.00 | 0.03 | 0.00 | 99 | 1007.9 |
| 20260509071643 | 56 | 215 | 3.0 | 5.0 | 0.00 | 0.03 | 0.00 | 99 | 1008.0 |
| 20260509071142 | 56 | 198 | 1.0 | 8.0 | 0.00 | 0.03 | 0.00 | 99 | 1008.1 |
| 20260509070718 | 55 | 198 | 0.0 | 4.0 | 0.00 | 0.03 | 0.00 | 99 | 1008.1 |
| 20260509070641 | 55 | 198 | 0.0 | 4.0 | 0.00 | 0.03 | 0.00 | 99 | 1008.1 |
| 20260509070140 | 55 | 213 | 3.0 | 4.0 | 0.00 | 0.03 | 0.00 | 99 | 1008.1 |
| 20260509065711 | 55 | 206 | 1.0 | 6.0 | 0.00 | 0.03 | 0.00 | 99 | 1008.1 |
| 20260509065639 | 55 | 206 | 1.0 | 6.0 | 0.00 | 0.03 | 0.00 | 99 | 1008.1 |
| 20260509065210 | 55 | 203 | 0.0 | 3.0 | 0.00 | 0.03 | 0.00 | 99 | 1008.2 |
| 20260509065138 | 55 | 203 | 0.0 | 3.0 | 0.00 | 0.03 | 0.00 | 99 | 1008.2 |
| 20260509064715 | 55 | 199 | 0.0 | 5.0 | 0.00 | 0.03 | 0.00 | 99 | 1008.3 |
| 20260509064637 | 55 | 199 | 0.0 | 5.0 | 0.00 | 0.03 | 0.00 | 99 | 1008.3 |
| 20260509064209 | 55 | 233 | 2.0 | 5.0 | 0.00 | 0.03 | 0.00 | 99 | 1008.3 |
| 20260509064136 | 55 | 233 | 2.0 | 5.0 | 0.00 | 0.03 | 0.00 | 99 | 1008.3 |
| 20260509063635 | 55 | 208 | 0.0 | 4.0 | 0.00 | 0.03 | 0.00 | 98 | 1008.5 |
| 20260509063205 | 55 | 229 | 3.0 | 5.0 | 0.00 | 0.03 | 0.00 | 98 | 1008.4 |
| 20260509063134 | 55 | 229 | 3.0 | 5.0 | 0.00 | 0.03 | 0.00 | 98 | 1008.4 |
| 20260509062706 | 55 | 184 | 1.0 | 6.0 | 0.00 | 0.03 | 0.00 | 98 | 1008.5 |
| 20260509062633 | 55 | 184 | 1.0 | 6.0 | 0.00 | 0.03 | 0.00 | 98 | 1008.5 |
| 20260509062132 | 55 | 191 | 0.0 | 4.0 | 0.00 | 0.03 | 0.00 | 98 | 1008.5 |
| 20260509061631 | 54 | 202 | 1.0 | 3.0 | 0.00 | 0.03 | 0.00 | 98 | 1008.5 |
| 20260509061130 | 54 | 209 | 1.0 | 5.0 | 0.00 | 0.03 | 0.00 | 98 | 1008.5 |
| 20260509060708 | 54 | 161 | 1.0 | 3.0 | 0.00 | 0.03 | 0.00 | 98 | 1008.5 |
| 20260509060629 | 54 | 161 | 1.0 | 3.0 | 0.00 | 0.03 | 0.00 | 98 | 1008.5 |
| 20260509060128 | 54 | 215 | 1.0 | 4.0 | 0.00 | 0.03 | 0.00 | 98 | 1008.5 |
| 20260509055627 | 54 | 251 | 2.0 | 4.0 | 0.00 | 0.03 | 0.00 | 98 | 1008.5 |
| 20260509055126 | 54 | 227 | 2.0 | 3.0 | 0.00 | 0.03 | 0.00 | 98 | 1008.5 |
| 20260509054625 | 54 | 209 | 1.0 | 3.0 | 0.00 | 0.03 | 0.00 | 98 | 1008.6 |
| 20260509054124 | 54 | 212 | 1.0 | 4.0 | 0.00 | 0.03 | 0.00 | 98 | 1008.5 |
| 20260509053623 | 54 | 191 | 5.0 | 5.0 | 0.00 | 0.03 | 0.00 | 98 | 1008.6 |
| 20260509053122 | 54 | 210 | 1.0 | 4.0 | 0.00 | 0.03 | 0.00 | 98 | 1008.6 |
| 20260509052621 | 54 | 210 | 1.0 | 4.0 | 0.00 | 0.03 | 0.00 | 98 | 1008.6 |
| 20260509052120 | 54 | 189 | 2.0 | 3.0 | 0.00 | 0.03 | 0.00 | 98 | 1008.6 |
| 20260509051619 | 54 | 206 | 1.0 | 2.0 | 0.00 | 0.03 | 0.00 | 98 | 1008.6 |
| 20260509051118 | 54 | 209 | 1.0 | 2.0 | 0.00 | 0.03 | 0.00 | 98 | 1008.6 |
| 20260509050618 | 55 | 177 | 0.0 | 1.0 | 0.00 | 0.03 | 0.00 | 98 | 1008.7 |
| 20260509050200 | 55 | 201 | 0.0 | 1.0 | 0.00 | 0.03 | 0.00 | 98 | 1008.6 |
| 20260509050116 | 55 | 201 | 0.0 | 1.0 | 0.00 | 0.03 | 0.00 | 98 | 1008.6 |
| 20260509045615 | 55 | 202 | 0.0 | 0.0 | 0.00 | 0.03 | 0.03 | 98 | 1008.6 |
| 20260509045146 | 55 | 201 | 1.0 | 1.0 | 0.00 | 0.03 | 0.03 | 98 | 1008.6 |
| 20260509045114 | 55 | 201 | 1.0 | 1.0 | 0.00 | 0.03 | 0.03 | 98 | 1008.6 |
| 20260509044613 | 55 | 205 | 0.0 | 1.0 | 0.00 | 0.03 | 0.03 | 98 | 1008.6 |
| 20260509044112 | 55 | 192 | 0.0 | 3.0 | 0.00 | 0.03 | 0.03 | 98 | 1008.6 |
| 20260509043611 | 55 | 199 | 1.0 | 3.0 | 0.00 | 0.03 | 0.03 | 98 | 1008.6 |
| 20260509043110 | 55 | 232 | 3.0 | 4.0 | 0.00 | 0.03 | 0.03 | 98 | 1008.6 |
| 20260509042609 | 55 | 213 | 2.0 | 2.0 | 0.00 | 0.03 | 0.03 | 98 | 1008.6 |
| 20260509042108 | 55 | 232 | 1.0 | 1.0 | 0.00 | 0.03 | 0.03 | 98 | 1008.7 |
| 20260509041726 | 55 | 226 | 1.0 | 1.0 | 0.00 | 0.03 | 0.03 | 97 | 1008.7 |
| 20260509041607 | 55 | 226 | 1.0 | 1.0 | 0.00 | 0.03 | 0.03 | 97 | 1008.7 |
| 20260509041106 | 55 | 198 | 0.0 | 1.0 | 0.00 | 0.03 | 0.03 | 98 | 1008.7 |
| 20260509040605 | 55 | 194 | 1.0 | 3.0 | 0.00 | 0.03 | 0.03 | 98 | 1008.7 |
| 20260509040104 | 56 | 215 | 2.0 | 2.0 | 0.00 | 0.03 | 0.03 | 98 | 1008.6 |
| 20260509035603 | 56 | 198 | 1.0 | 3.0 | 0.00 | 0.03 | 0.03 | 97 | 1008.6 |
| 20260509035102 | 56 | 220 | 0.0 | 2.0 | 0.00 | 0.03 | 0.03 | 97 | 1008.8 |
| 20260509034601 | 56 | 217 | 0.0 | 1.0 | 0.00 | 0.03 | 0.03 | 97 | 1008.8 |
| 20260509034100 | 56 | 213 | 1.0 | 3.0 | 0.00 | 0.03 | 0.03 | 97 | 1008.8 |
| 20260509033634 | 56 | 196 | 0.0 | 2.0 | 0.00 | 0.03 | 0.03 | 97 | 1008.8 |
| 20260509033559 | 56 | 196 | 0.0 | 2.0 | 0.00 | 0.03 | 0.03 | 97 | 1008.8 |
| 20260509033058 | 56 | 220 | 2.0 | 4.0 | 0.00 | 0.03 | 0.03 | 98 | 1008.7 |
| 20260509032557 | 56 | 220 | 1.0 | 3.0 | 0.00 | 0.03 | 0.03 | 97 | 1008.8 |
| 20260509032056 | 56 | 192 | 1.0 | 5.0 | 0.00 | 0.03 | 0.03 | 97 | 1008.7 |
| 20260509031555 | 57 | 202 | 0.0 | 0.0 | 0.00 | 0.03 | 0.03 | 97 | 1008.8 |
| 20260509031054 | 57 | 202 | 0.0 | 2.0 | 0.00 | 0.03 | 0.03 | 97 | 1008.8 |
| 20260509030553 | 57 | 195 | 0.0 | 0.0 | 0.00 | 0.03 | 0.03 | 97 | 1008.7 |
| 20260509030052 | 57 | 195 | 0.0 | 0.0 | 0.00 | 0.03 | 0.03 | 97 | 1008.6 |
| 20260509025551 | 57 | 195 | 0.0 | 3.0 | 0.00 | 0.03 | 0.03 | 97 | 1008.6 |
| 20260509025050 | 57 | 37 | 0.0 | 0.0 | 0.00 | 0.03 | 0.03 | 97 | 1008.5 |
| 20260509024549 | 57 | 37 | 0.0 | 0.0 | 0.00 | 0.03 | 0.03 | 96 | 1008.5 |
| 20260509024048 | 57 | 37 | 0.0 | 0.0 | 0.00 | 0.03 | 0.03 | 96 | 1008.4 |
| 20260509023547 | 57 | 37 | 0.0 | 0.0 | 0.00 | 0.03 | 0.03 | 96 | 1008.3 |
| 20260509023046 | 57 | 37 | 0.0 | 0.0 | 0.00 | 0.03 | 0.03 | 96 | 1008.3 |
| 20260509022545 | 57 | 37 | 0.0 | 0.0 | 0.00 | 0.03 | 0.03 | 96 | 1008.2 |
| 20260509022044 | 57 | 37 | 0.0 | 0.0 | 0.00 | 0.03 | 0.03 | 96 | 1008.2 |
| 20260509021543 | 58 | 37 | 0.0 | 0.0 | 0.00 | 0.03 | 0.03 | 96 | 1008.2 |
| 20260509021042 | 58 | 37 | 0.0 | 0.0 | 0.00 | 0.03 | 0.03 | 95 | 1008.2 |
| 20260509020541 | 58 | 37 | 0.0 | 0.0 | 0.00 | 0.03 | 0.03 | 95 | 1008.1 |
| 20260509020041 | 58 | 37 | 0.0 | 0.0 | 0.00 | 0.03 | 0.03 | 95 | 1008.2 |
| 20260509015539 | 58 | 37 | 0.0 | 0.0 | 0.00 | 0.03 | 0.03 | 95 | 1008.1 |
| 20260509015039 | 59 | 37 | 0.0 | 0.0 | 0.00 | 0.03 | 0.03 | 93 | 1008.0 |
| 20260509014537 | 59 | 37 | 0.0 | 0.0 | 0.00 | 0.03 | 0.03 | 92 | 1007.9 |
| 20260509014036 | 60 | 37 | 0.0 | 0.0 | 0.00 | 0.03 | 0.03 | 91 | 1007.9 |
| 20260509013535 | 60 | 37 | 0.0 | 0.0 | 0.00 | 0.03 | 0.03 | 90 | 1007.9 |
| 20260509013035 | 60 | 37 | 0.0 | 0.0 | 0.00 | 0.03 | 0.03 | 90 | 1007.9 |
| 20260509012533 | 60 | 37 | 0.0 | 0.0 | 0.00 | 0.03 | 0.03 | 90 | 1007.9 |
| 20260509012033 | 60 | 37 | 0.0 | 0.0 | 0.00 | 0.03 | 0.03 | 89 | 1007.9 |
| 20260509011531 | 61 | 37 | 0.0 | 0.0 | 0.00 | 0.03 | 0.03 | 89 | 1007.8 |
| 20260509011031 | 61 | 37 | 0.0 | 0.0 | 0.00 | 0.03 | 0.03 | 89 | 1007.8 |
| 20260509010530 | 61 | 37 | 0.0 | 0.0 | 0.00 | 0.03 | 0.03 | 89 | 1007.6 |
| 20260509010028 | 61 | 37 | 0.0 | 0.0 | 0.00 | 0.03 | 0.03 | 88 | 1007.6 |
| 20260509005527 | 61 | 37 | 0.0 | 0.0 | 0.00 | 0.03 | 0.03 | 88 | 1007.5 |
| 20260509005027 | 61 | 37 | 0.0 | 0.0 | 0.00 | 0.03 | 0.03 | 88 | 1007.3 |
| 20260509004526 | 62 | 37 | 0.0 | 0.0 | 0.00 | 0.03 | 0.03 | 87 | 1007.3 |
| 20260509004025 | 62 | 37 | 0.0 | 0.0 | 0.00 | 0.03 | 0.03 | 87 | 1007.4 |
| 20260509003523 | 62 | 37 | 0.0 | 0.0 | 0.00 | 0.03 | 0.03 | 87 | 1007.5 |
| 20260509003023 | 62 | 37 | 0.0 | 0.0 | 0.00 | 0.03 | 0.03 | 86 | 1007.2 |
| 20260509002522 | 62 | 37 | 0.0 | 0.0 | 0.00 | 0.03 | 0.03 | 86 | 1006.9 |
| 20260509002020 | 62 | 37 | 0.0 | 0.0 | 0.00 | 0.03 | 0.03 | 86 | 1006.8 |
| 20260509001520 | 62 | 37 | 0.0 | 0.0 | 0.00 | 0.03 | 0.03 | 86 | 1006.9 |
| 20260509001018 | 62 | 37 | 0.0 | 0.0 | 0.00 | 0.03 | 0.03 | 85 | 1007.0 |
| 20260509000517 | 62 | 37 | 0.0 | 0.0 | 0.00 | 0.03 | 0.03 | 85 | 1007.0 |
| 20260509000017 | 62 | 37 | 0.0 | 1.0 | 0.00 | 0.03 | 0.03 | 85 | 1007.0 |
| 20260508235515 | 62 | 348 | 0.0 | 0.0 | 0.00 | 0.03 | 0.03 | 85 | 1007.0 |
| 20260508235015 | 62 | 323 | 1.0 | 5.0 | 0.00 | 0.03 | 0.03 | 85 | 1007.0 |
| 20260508234514 | 62 | 358 | 3.0 | 5.0 | 0.00 | 0.03 | 0.03 | 86 | 1007.1 |
| 20260508234012 | 62 | 358 | 3.0 | 6.0 | 0.00 | 0.03 | 0.03 | 89 | 1007.1 |
| 20260508233511 | 62 | 334 | 1.0 | 3.0 | 0.00 | 0.03 | 0.03 | 89 | 1007.1 |
| 20260508233010 | 61 | 215 | 0.0 | 0.0 | 0.00 | 0.03 | 0.03 | 89 | 1006.9 |
| 20260508232509 | 61 | 215 | 0.0 | 2.0 | 0.00 | 0.03 | 0.03 | 89 | 1006.6 |
| 20260508232009 | 61 | 272 | 0.0 | 3.0 | 0.00 | 0.03 | 0.03 | 90 | 1006.5 |
| 20260508231506 | 61 | 181 | 4.0 | 8.0 | 0.00 | 0.03 | 0.03 | 92 | 1006.4 |
| 20260508231005 | 61 | 196 | 1.0 | 5.0 | 0.01 | 0.03 | 0.03 | 94 | 1006.4 |
| 20260508230505 | 61 | 191 | 0.0 | 4.0 | 0.01 | 0.03 | 0.03 | 95 | 1006.5 |
| 20260508230004 | 60 | 198 | 2.0 | 3.0 | 0.01 | 0.03 | 0.03 | 95 | 1006.6 |
| 20260508225503 | 60 | 7 | 0.0 | 2.0 | 0.01 | 0.03 | 0.03 | 95 | 1006.8 |
| 20260508225001 | 60 | 49 | 0.0 | 4.0 | 0.01 | 0.03 | 0.03 | 95 | 1006.6 |
| 20260508224459 | 60 | 74 | 1.0 | 4.0 | 0.01 | 0.03 | 0.03 | 95 | 1006.5 |
| 20260508223959 | 60 | 165 | 0.0 | 4.0 | 0.01 | 0.03 | 0.03 | 95 | 1006.4 |
| 20260508223458 | 60 | 49 | 2.0 | 3.0 | 0.01 | 0.03 | 0.03 | 95 | 1006.6 |
| 20260508222956 | 60 | 360 | 1.0 | 5.0 | 0.01 | 0.03 | 0.03 | 95 | 1006.5 |
| 20260508222455 | 59 | 105 | 1.0 | 4.0 | 0.02 | 0.03 | 0.03 | 95 | 1006.8 |
| 20260508221954 | 59 | 97 | 3.0 | 3.0 | 0.02 | 0.03 | 0.03 | 94 | 1007.0 |
| 20260508221453 | 59 | 133 | 1.0 | 3.0 | 0.02 | 0.03 | 0.03 | 93 | 1007.3 |
| 20260508220952 | 59 | 26 | 0.0 | 1.0 | 0.01 | 0.02 | 0.02 | 92 | 1007.6 |
| 20260508220451 | 59 | 47 | 2.0 | 4.0 | 0.01 | 0.02 | 0.02 | 92 | 1007.7 |
| 20260508215950 | 59 | 54 | 0.0 | 2.0 | 0.02 | 0.02 | 0.02 | 92 | 1007.8 |
| 20260508215449 | 59 | 23 | 2.0 | 5.0 | 0.02 | 0.02 | 0.02 | 92 | 1008.0 |
| 20260508214949 | 60 | 315 | 2.0 | 6.0 | 0.02 | 0.02 | 0.02 | 91 | 1008.1 |
| 20260508214447 | 60 | 4 | 4.0 | 7.0 | 0.02 | 0.02 | 0.02 | 91 | 1008.2 |
| 20260508213947 | 60 | 1 | 2.0 | 7.0 | 0.02 | 0.02 | 0.02 | 91 | 1008.3 |
| 20260508213446 | 60 | 1 | 6.0 | 7.0 | 0.02 | 0.02 | 0.02 | 89 | 1008.4 |
| 20260508212944 | 61 | 305 | 0.0 | 2.0 | 0.02 | 0.02 | 0.02 | 87 | 1008.7 |
| 20260508212443 | 61 | 340 | 0.0 | 3.0 | 0.01 | 0.01 | 0.01 | 87 | 1008.7 |
| 20260508211942 | 62 | 315 | 0.0 | 3.0 | 0.01 | 0.01 | 0.01 | 86 | 1008.9 |
| 20260508211441 | 62 | 310 | 1.0 | 4.0 | 0.01 | 0.01 | 0.01 | 85 | 1008.9 |
| 20260508210940 | 62 | 351 | 0.0 | 2.0 | 0.01 | 0.01 | 0.01 | 84 | 1008.3 |
| 20260508210439 | 63 | 352 | 0.0 | 3.0 | 0.01 | 0.01 | 0.01 | 81 | 1008.3 |
| 20260508205938 | 63 | 326 | 0.0 | 2.0 | 0.00 | 0.00 | 0.00 | 80 | 1008.5 |
| 20260508205437 | 63 | 298 | 0.0 | 2.0 | 0.00 | 0.00 | 0.00 | 78 | 1008.6 |
| 20260508204937 | 64 | 4 | 0.0 | 2.0 | 0.00 | 0.00 | 0.00 | 77 | 1008.6 |
| 20260508204435 | 65 | 329 | 2.0 | 2.0 | 0.00 | 0.00 | 0.00 | 73 | 1008.5 |
| 20260508203935 | 65 | 243 | 0.0 | 2.0 | 0.00 | 0.00 | 0.00 | 74 | 1008.7 |
| 20260508203433 | 64 | 4 | 0.0 | 4.0 | 0.00 | 0.00 | 0.00 | 76 | 1008.8 |
| 20260508202933 | 65 | 352 | 1.0 | 3.0 | 0.00 | 0.00 | 0.00 | 73 | 1008.0 |
| 20260508202432 | 65 | 9 | 3.0 | 3.0 | 0.00 | 0.00 | 0.00 | 72 | 1007.9 |
| 20260508201930 | 65 | 348 | 0.0 | 5.0 | 0.00 | 0.00 | 0.00 | 72 | 1008.0 |
| 20260508201429 | 65 | 206 | 0.0 | 0.0 | 0.00 | 0.00 | 0.00 | 71 | 1008.2 |
| 20260508200928 | 66 | 206 | 0.0 | 5.0 | 0.00 | 0.00 | 0.00 | 70 | 1008.7 |
| 20260508200428 | 65 | 168 | 0.0 | 3.0 | 0.00 | 0.00 | 0.00 | 70 | 1008.7 |
| 20260508195926 | 66 | 240 | 0.0 | 3.0 | 0.00 | 0.00 | 0.00 | 69 | 1008.8 |
| 20260508195426 | 65 | 237 | 0.0 | 5.0 | 0.00 | 0.00 | 0.00 | 69 | 1008.7 |
| 20260508194924 | 65 | 230 | 1.0 | 2.0 | 0.00 | 0.00 | 0.00 | 69 | 1008.7 |
| 20260508194423 | 65 | 154 | 0.0 | 3.0 | 0.00 | 0.00 | 0.00 | 69 | 1008.5 |
| 20260508193923 | 65 | 137 | 0.0 | 3.0 | 0.00 | 0.00 | 0.00 | 71 | 1008.3 |
| 20260508193420 | 65 | 104 | 0.0 | 0.0 | 0.00 | 0.00 | 0.00 | 70 | 1008.2 |
| 20260508192920 | 65 | 104 | 0.0 | 4.0 | 0.00 | 0.00 | 0.00 | 71 | 1008.3 |
| 20260508192417 | 65 | 180 | 2.0 | 2.0 | 0.00 | 0.00 | 0.00 | 71 | 1008.3 |
| 20260508191916 | 65 | 237 | 0.0 | 0.0 | 0.00 | 0.00 | 0.00 | 69 | 1008.5 |
| 20260508191416 | 65 | 237 | 0.0 | 3.0 | 0.00 | 0.00 | 0.00 | 68 | 1008.9 |
| 20260508190914 | 65 | 189 | 0.0 | 5.0 | 0.00 | 0.00 | 0.00 | 69 | 1008.7 |
| 20260508190413 | 65 | 209 | 0.0 | 5.0 | 0.00 | 0.00 | 0.00 | 68 | 1008.7 |
| 20260508185911 | 65 | 175 | 0.0 | 4.0 | 0.00 | 0.00 | 0.00 | 69 | 1008.7 |
| 20260508185410 | 65 | 239 | 0.0 | 0.0 | 0.00 | 0.00 | 0.00 | 69 | 1008.7 |
| 20260508184910 | 64 | 239 | 0.0 | 0.0 | 0.00 | 0.00 | 0.00 | 69 | 1008.6 |
| 20260508184409 | 64 | 239 | 0.0 | 0.0 | 0.00 | 0.00 | 0.00 | 68 | 1008.6 |
| 20260508183907 | 64 | 239 | 0.0 | 0.0 | 0.00 | 0.00 | 0.00 | 69 | 1008.8 |
| 20260508183405 | 64 | 239 | 0.0 | 0.0 | 0.00 | 0.00 | 0.00 | 68 | 1008.9 |
| 20260508182903 | 64 | 219 | 1.0 | 6.0 | 0.00 | 0.00 | 0.00 | 68 | 1009.2 |
| 20260508182402 | 64 | 198 | 1.0 | 2.0 | 0.00 | 0.00 | 0.00 | 67 | 1009.3 |
| 20260508181902 | 64 | 181 | 0.0 | 3.0 | 0.00 | 0.00 | 0.00 | 68 | 1009.3 |
| 20260508181400 | 65 | 220 | 1.0 | 2.0 | 0.00 | 0.00 | 0.00 | 67 | 1009.3 |
| 20260508180859 | 64 | 229 | 2.0 | 5.0 | 0.00 | 0.00 | 0.00 | 68 | 1009.3 |
| 20260508180357 | 64 | 232 | 1.0 | 3.0 | 0.00 | 0.00 | 0.00 | 69 | 1009.3 |
| 20260508175856 | 64 | 192 | 0.0 | 1.0 | 0.00 | 0.00 | 0.00 | 69 | 1009.3 |
| 20260508175355 | 64 | 209 | 0.0 | 2.0 | 0.00 | 0.00 | 0.00 | 69 | 1009.2 |
| 20260508174852 | 64 | 205 | 0.0 | 3.0 | 0.00 | 0.00 | 0.00 | 70 | 1009.3 |
| 20260508174351 | 63 | 226 | 1.0 | 1.0 | 0.00 | 0.00 | 0.00 | 70 | 1009.2 |
| 20260508173851 | 63 | 240 | 0.0 | 2.0 | 0.00 | 0.00 | 0.00 | 70 | 1009.2 |
| 20260508173349 | 63 | 184 | 0.0 | 1.0 | 0.00 | 0.00 | 0.00 | 70 | 1009.3 |
| 20260508172848 | 63 | 239 | 1.0 | 8.0 | 0.00 | 0.00 | 0.00 | 70 | 1009.3 |
| 20260508172347 | 63 | 254 | 2.0 | 3.0 | 0.00 | 0.00 | 0.00 | 70 | 1009.1 |
| 20260508171846 | 63 | 181 | 0.0 | 4.0 | 0.00 | 0.00 | 0.00 | 71 | 1009.1 |
| 20260508171345 | 62 | 219 | 1.0 | 2.0 | 0.00 | 0.00 | 0.00 | 72 | 1008.8 |
| 20260508170845 | 62 | 49 | 1.0 | 2.0 | 0.00 | 0.00 | 0.00 | 71 | 1008.7 |
| 20260508170343 | 62 | 248 | 0.0 | 2.0 | 0.00 | 0.00 | 0.00 | 71 | 1009.3 |
| 20260508165843 | 62 | 177 | 0.0 | 0.0 | 0.00 | 0.00 | 0.00 | 71 | 1009.0 |
| 20260508165341 | 62 | 177 | 0.0 | 1.0 | 0.00 | 0.00 | 0.00 | 71 | 1009.4 |
| 20260508164840 | 62 | 222 | 0.0 | 2.0 | 0.00 | 0.00 | 0.00 | 71 | 1009.7 |
| 20260508164340 | 62 | 215 | 0.0 | 0.0 | 0.00 | 0.00 | 0.00 | 70 | 1009.9 |
| 20260508163838 | 62 | 215 | 0.0 | 2.0 | 0.00 | 0.00 | 0.00 | 69 | 1009.9 |
| 20260508163337 | 62 | 240 | 1.0 | 4.0 | 0.00 | 0.00 | 0.00 | 69 | 1009.8 |
| 20260508162836 | 62 | 233 | 0.0 | 5.0 | 0.00 | 0.00 | 0.00 | 69 | 1009.8 |
| 20260508162336 | 62 | 240 | 0.0 | 1.0 | 0.00 | 0.00 | 0.00 | 69 | 1009.8 |
| 20260508161834 | 62 | 240 | 1.0 | 9.0 | 0.00 | 0.00 | 0.00 | 69 | 1009.7 |
| 20260508161334 | 62 | 223 | 3.0 | 6.0 | 0.00 | 0.00 | 0.00 | 68 | 1009.6 |
| 20260508160832 | 62 | 247 | 1.0 | 4.0 | 0.00 | 0.00 | 0.00 | 69 | 1009.4 |
| 20260508160331 | 62 | 272 | 0.0 | 3.0 | 0.00 | 0.00 | 0.00 | 70 | 1009.6 |
| 20260508155831 | 62 | 191 | 0.0 | 8.0 | 0.00 | 0.00 | 0.00 | 70 | 1009.7 |
| 20260508155329 | 62 | 216 | 0.0 | 7.0 | 0.00 | 0.00 | 0.00 | 70 | 1009.6 |
| 20260508154828 | 61 | 208 | 2.0 | 4.0 | 0.00 | 0.00 | 0.00 | 71 | 1009.4 |
| 20260508154328 | 61 | 184 | 0.0 | 4.0 | 0.00 | 0.00 | 0.00 | 70 | 1009.6 |
| 20260508153826 | 61 | 187 | 0.0 | 2.0 | 0.00 | 0.00 | 0.00 | 69 | 1009.6 |
| 20260508153325 | 61 | 202 | 0.0 | 2.0 | 0.00 | 0.00 | 0.00 | 70 | 1009.7 |
| 20260508152825 | 61 | 226 | 0.0 | 4.0 | 0.00 | 0.00 | 0.00 | 70 | 1009.7 |
| 20260508152324 | 61 | 230 | 1.0 | 3.0 | 0.00 | 0.00 | 0.00 | 71 | 1009.7 |
| 20260508151822 | 61 | 201 | 0.0 | 0.0 | 0.00 | 0.00 | 0.00 | 71 | 1009.7 |
| 20260508151321 | 60 | 201 | 0.0 | 2.0 | 0.00 | 0.00 | 0.00 | 70 | 1009.8 |
| 20260508150820 | 60 | 171 | 0.0 | 0.0 | 0.00 | 0.00 | 0.00 | 70 | 1010.0 |
| 20260508150320 | 60 | 171 | 0.0 | 2.0 | 0.00 | 0.00 | 0.00 | 69 | 1010.0 |
| 20260508145818 | 60 | 247 | 0.0 | 6.0 | 0.00 | 0.00 | 0.00 | 69 | 1010.0 |
| 20260508145317 | 60 | 241 | 0.0 | 5.0 | 0.00 | 0.00 | 0.00 | 69 | 1010.0 |
| 20260508144816 | 60 | 225 | 0.0 | 5.0 | 0.00 | 0.00 | 0.00 | 69 | 1010.0 |
| 20260508144316 | 60 | 188 | 0.0 | 4.0 | 0.00 | 0.00 | 0.00 | 69 | 1010.0 |
| 20260508143815 | 60 | 203 | 1.0 | 7.0 | 0.00 | 0.00 | 0.00 | 69 | 1009.9 |